Simultaneous Nadir Overpasses (SNOs) Predictions

Prediction of SNOs between METOP-A and TERRA Satellite Orbit:

Table of predicted SNOs for the next 14.0 days since TLE Epoch: 3/13/2017
Index Date (METOP-A) Time (METOP-A) Lat,Lon (METOP-A) SZA (METOP-A ) Date (TERRA) Time (TERRA) Lat,Lon (TERRA) SZA (TERRA ) Distance(km) Time Diff (sec)
1 03/13/2017 07:47:40 -81.26, -72.99 93.78 03/13/2017 07:48:54 -81.13, -72.68 93.81 15.58 74
2 03/13/2017 08:38:10 81.33, 98.58 86.71 03/13/2017 08:38:11 81.33, 98.39 86.69 3.10 1
3 03/13/2017 09:28:51 -81.33, -94.21 93.33 03/13/2017 09:27:38 -81.33, -94.02 93.34 3.21 73
4 03/16/2017 03:21:52 -81.32, -2.90 94.43 03/16/2017 03:23:00 -81.32, -2.91 94.40 0.29 68
5 03/16/2017 04:12:32 81.33, 164.73 85.59 03/16/2017 04:12:26 81.33, 164.79 85.60 0.91 6
6 03/
